Change the Weather History Date:

Friday, January 11, 2013

  Actual Average (KDAY) Record (KDAY)
Temperature  
Mean Temperature 47 °F 27 °F  
Max Temperature 55 °F 34 °F 59 °F (2013)
Min Temperature 39 °F 20 °F -8 °F (1977)
Degree Days  
Heating Degree Days 18 38  
Month to date heating degree days 412  
Since 1 July heating degree days 2571  
Cooling Degree Days 0 0  
Month to date cooling degree days 0  
Year to date cooling degree days 0  
Moisture  
Dew Point 46 °F    
Average Humidity 93    
Maximum Humidity 100    
Minimum Humidity 75    
Precipitation  
Precipitation 0.27 in 0.09 in 2.08 in (2005)
Month to date precipitation 1.05  
Year to date precipitation 1.05  
Snow  
Snow 0.00 in 0.30 in 2.80 in (2011)
Month to date snowfall 2.7  
Since 1 July snowfall 8.2  
Snow Depth -    
Sea Level Pressure  
Sea Level Pressure 29.92 in    
Wind  
Wind Speed 15 mph (South)    
Max Wind Speed 22 mph    
Max Gust Speed 29 mph    
Visibility 9 miles    
Events      
T = Trace of Precipitation, MM = Missing Value Source: NWS Daily Summary

Daily Weather History Graph

Daily Weather History Graph

Search for Another Location

Airport or City:

Trip Planner

Search our weather history database for the weather conditions in past years. The results will help you decide how hot, cold, wet, or windy it might be!

Date:

Astronomy

Jan. 11, 2013 Rise Set
Actual Time 7:57 AM EST 5:29 PM EST
Civil Twilight 7:27 AM EST 5:59 PM EST
Nautical Twilight 6:53 AM EST 6:33 PM EST
Astronomical Twilight 6:20 AM EST 7:06 PM EST
Moon 7:29 AM EST (1/11) 5:46 PM EST (1/11)
Length of Visible Light 10h 32m
Length of Day
9h 32m
Waning Crescent, 0% of the Moon is Illuminated
Jan 11
Waning Crescent
Jan 11
New
Jan 18
First Quarter
Jan 26
Full
Feb 3
Last Quarter

Hourly Weather History & Observations

Time (EST) Temp. Windchill Dew Point Humidity Pressure Visibility Wind Dir Wind Speed Gust Speed Precip Events Conditions
12:05 AM 39.2 °F 30.8 °F 32.0 °F 75% 30.09 in 10.0 mi SE 15.0 mph - 0.00 in   Mostly Cloudy
12:45 AM 39.2 °F 30.5 °F 32.0 °F 75% 30.07 in 10.0 mi SE 16.1 mph - 0.00 in   Mostly Cloudy
1:05 AM 39.2 °F 30.5 °F 33.8 °F 81% 30.07 in 10.0 mi SE 16.1 mph - 0.00 in   Scattered Clouds
1:25 AM 39.2 °F 30.5 °F 33.8 °F 81% 30.06 in 10.0 mi SE 16.1 mph - 0.00 in   Scattered Clouds
1:45 AM 41.0 °F 32.2 °F 33.8 °F 76% 30.04 in 10.0 mi SE 18.4 mph - 0.00 in   Scattered Clouds
2:05 AM 41.0 °F 32.5 °F 33.8 °F 76% 30.04 in 10.0 mi SE 17.3 mph - 0.00 in   Scattered Clouds
2:25 AM 42.8 °F 34.5 °F 37.4 °F 81% 30.03 in 10.0 mi SE 18.4 mph - 0.00 in   Mostly Cloudy
2:45 AM 42.8 °F 35.4 °F 37.4 °F 81% 30.02 in 10.0 mi SE 15.0 mph - 0.00 in   Scattered Clouds
3:05 AM 42.8 °F 34.5 °F 37.4 °F 81% 30.01 in 10.0 mi SE 18.4 mph - 0.00 in   Scattered Clouds
3:25 AM 42.8 °F 34.8 °F 39.2 °F 87% 29.99 in 10.0 mi SE 17.3 mph 21.9 mph 0.00 in   Scattered Clouds
3:45 AM 44.6 °F 36.9 °F 39.2 °F 81% 29.99 in 10.0 mi SE 18.4 mph - 0.00 in   Partly Cloudy
4:05 AM 44.6 °F 37.2 °F 41.0 °F 87% 29.97 in 10.0 mi SE 17.3 mph - 0.00 in   Mostly Cloudy
4:25 AM 44.6 °F 37.4 °F 42.8 °F 93% 29.96 in 10.0 mi SE 16.1 mph - 0.00 in   Partly Cloudy
4:45 AM 44.6 °F 37.2 °F 42.8 °F 93% 29.94 in 10.0 mi SE 17.3 mph - 0.00 in   Clear
5:05 AM 42.8 °F 35.4 °F 42.8 °F 100% 29.94 in 10.0 mi SSE 15.0 mph - 0.00 in   Clear
5:25 AM 44.6 °F 37.4 °F 42.8 °F 93% 29.92 in 10.0 mi SE 16.1 mph - 0.00 in   Clear
5:45 AM 44.6 °F 37.4 °F 44.6 °F 100% 29.92 in 7.0 mi SE 16.1 mph 21.9 mph 0.00 in   Partly Cloudy
6:05 AM 44.6 °F 38.1 °F 44.6 °F 100% 29.90 in 3.0 mi SSE 13.8 mph - 0.00 in   Mostly Cloudy
6:25 AM 46.4 °F 40.1 °F 46.4 °F 100% 29.89 in 10.0 mi SSE 15.0 mph 20.7 mph 0.00 in   Mostly Cloudy
7:05 AM 48.2 °F - 48.2 °F 100% 29.91 in 3.0 mi SSE 19.6 mph 23.0 mph 0.03 in   Mostly Cloudy
7:25 AM 48.2 °F - 48.2 °F 100% 29.91 in 3.0 mi SSE 17.3 mph 21.9 mph 0.14 in   Mostly Cloudy
7:45 AM 46.4 °F 39.8 °F 46.4 °F 100% 29.90 in 3.0 mi SSE 16.1 mph 26.5 mph 0.22 in   Overcast
8:05 AM 46.4 °F 41.1 °F 46.4 °F 100% 29.89 in 4.0 mi SSE 11.5 mph - 0.02 in   Mostly Cloudy
8:25 AM 48.2 °F - 48.2 °F 100% 29.91 in 5.0 mi South 11.5 mph - 0.03 in   Mostly Cloudy
8:45 AM 46.4 °F 40.4 °F 46.4 °F 100% 29.89 in 3.0 mi SSE 13.8 mph - 0.04 in   Overcast
9:05 AM 48.2 °F - 48.2 °F 100% 29.88 in 7.0 mi SSE 17.3 mph 21.9 mph 0.01 in   Mostly Cloudy
9:25 AM 48.2 °F - 48.2 °F 100% 29.86 in 10.0 mi SSE 17.3 mph 24.2 mph 0.01 in   Partly Cloudy
9:45 AM 48.2 °F - 48.2 °F 100% 29.85 in 8.0 mi SSE 17.3 mph - 0.01 in   Clear
10:05 AM 48.2 °F - 48.2 °F 100% 29.85 in 10.0 mi SSE 16.1 mph 23.0 mph 0.00 in   Scattered Clouds
10:25 AM 50.0 °F - 50.0 °F 100% 29.86 in 10.0 mi South 15.0 mph - 0.00 in   Mostly Cloudy
10:45 AM 51.8 °F - 51.8 °F 100% 29.86 in 10.0 mi South 19.6 mph 24.2 mph 0.00 in   Overcast
11:05 AM 51.8 °F - 51.8 °F 100% 29.86 in 10.0 mi SSW 18.4 mph 26.5 mph 0.00 in   Overcast
11:25 AM 53.6 °F - 53.6 °F 100% 29.87 in 10.0 mi SW 17.3 mph - 0.00 in   Overcast
11:45 AM 53.6 °F - 53.6 °F 100% 29.87 in 10.0 mi SW 19.6 mph 25.3 mph 0.00 in   Overcast
12:05 PM 53.6 °F - 53.6 °F 100% 29.86 in 10.0 mi SW 19.6 mph 26.5 mph 0.00 in   Mostly Cloudy
12:25 PM 55.4 °F - 55.4 °F 100% 29.86 in 10.0 mi SW 19.6 mph 25.3 mph 0.00 in   Mostly Cloudy
12:45 PM 55.4 °F - 53.6 °F 94% 29.86 in 10.0 mi SW 15.0 mph 19.6 mph 0.00 in   Overcast
1:05 PM 55.4 °F - 53.6 °F 94% 29.86 in 10.0 mi SW 15.0 mph 24.2 mph 0.00 in   Overcast
1:25 PM 55.4 °F - 53.6 °F 94% 29.86 in 10.0 mi SW 12.7 mph - 0.00 in   Mostly Cloudy
1:45 PM 55.4 °F - 53.6 °F 94% 29.86 in 10.0 mi SW 15.0 mph 25.3 mph 0.00 in   Mostly Cloudy
2:05 PM 55.4 °F - 53.6 °F 94% 29.86 in 10.0 mi SW 12.7 mph - 0.00 in   Overcast
3:05 PM 55.4 °F - 51.8 °F 88% 29.87 in 10.0 mi SW 16.1 mph 19.6 mph 0.00 in   Mostly Cloudy
3:25 PM 55.4 °F - 50.0 °F 82% 29.88 in 10.0 mi SW 16.1 mph 24.2 mph 0.00 in   Overcast
3:45 PM 55.4 °F - 50.0 °F 82% 29.88 in 10.0 mi SW 21.9 mph 28.8 mph 0.00 in   Mostly Cloudy
4:05 PM 55.4 °F - 50.0 °F 82% 29.89 in 10.0 mi SSW 16.1 mph 26.5 mph 0.00 in   Scattered Clouds
4:25 PM 53.6 °F - 48.2 °F 82% 29.89 in 10.0 mi SW 19.6 mph 24.2 mph 0.00 in   Clear
4:45 PM 53.6 °F - 48.2 °F 82% 29.90 in 10.0 mi SSW 12.7 mph - 0.00 in   Clear
5:05 PM 51.8 °F - 48.2 °F 88% 29.90 in 10.0 mi SSW 10.4 mph - 0.00 in   Partly Cloudy
5:25 PM 51.8 °F - 48.2 °F 88% 29.91 in 10.0 mi SSW 9.2 mph - 0.00 in   Clear
5:45 PM 50.0 °F - 48.2 °F 94% 29.91 in 10.0 mi SSW 5.8 mph - 0.00 in   Clear
6:05 PM 50.0 °F - 48.2 °F 94% 29.92 in 10.0 mi South 6.9 mph - 0.00 in   Clear
6:25 PM 48.2 °F - 48.2 °F 100% 29.91 in 10.0 mi South 8.1 mph - 0.00 in   Clear
6:45 PM 48.2 °F - 48.2 °F 100% 29.92 in 10.0 mi South 9.2 mph - 0.00 in   Clear
7:05 PM 48.2 °F - 46.4 °F 93% 29.92 in 10.0 mi South 8.1 mph - 0.00 in   Clear
7:25 PM 48.2 °F - 46.4 °F 93% 29.91 in 10.0 mi SSE 6.9 mph - 0.00 in   Clear
7:45 PM 48.2 °F - 48.2 °F 100% 29.91 in 10.0 mi SSE 9.2 mph - 0.00 in   Clear
8:05 PM 48.2 °F - 48.2 °F 100% 29.92 in 10.0 mi SSE 8.1 mph - 0.00 in   Clear
8:25 PM 48.2 °F - 48.2 °F 100% 29.91 in 10.0 mi SSE 9.2 mph - 0.00 in   Clear
8:45 PM 48.2 °F - 48.2 °F 100% 29.91 in 10.0 mi SSE 10.4 mph - 0.00 in   Clear
9:05 PM 50.0 °F - 48.2 °F 94% 29.92 in 10.0 mi SSE 10.4 mph - 0.00 in   Clear
9:25 PM 48.2 °F - 48.2 °F 100% 29.91 in 10.0 mi SSE 10.4 mph - 0.00 in   Clear
9:45 PM 48.2 °F - 48.2 °F 100% 29.91 in 10.0 mi SSE 11.5 mph - 0.00 in   Clear
10:05 PM 48.2 °F - 48.2 °F 100% 29.90 in 10.0 mi SSE 10.4 mph - 0.00 in   Clear
10:25 PM 48.2 °F - 46.4 °F 93% 29.91 in 10.0 mi SSE 11.5 mph - 0.00 in   Clear
10:45 PM 48.2 °F - 46.4 °F 93% 29.91 in 10.0 mi SSE 9.2 mph - 0.00 in   Clear
11:05 PM 48.2 °F - 46.4 °F 93% 29.90 in 10.0 mi South 11.5 mph - 0.00 in   Clear
11:25 PM 48.2 °F - 46.4 °F 93% 29.90 in 10.0 mi South 9.2 mph - 0.00 in   Clear
11:45 PM 48.2 °F - 46.4 °F 93% 29.90 in 10.0 mi South 10.4 mph - 0.00 in   Clear